START_TIME,STEP,MOV.,M29,t_acc.,H22,t_acc.,H26,t_acc.,H30,t_acc.
1979-07-06 15:00:32.570 ,1,0,0.,24.0,0.,24.0,0.,24.0,0.,24.0
1979-07-06 15:00:56.570 ,2,1,0.,24.0,0.,24.0,0.,24.0,0.,24.0
1979-07-06 15:01:20.570 ,2,0,0.,24.0,0.,24.0,0.,24.0,0.,24.0
1979-07-06 15:01:44.570 ,3,1,0.,24.0,0.,24.0,0.,24.0,0.,24.0
1979-07-06 15:02:08.570 ,3,0,0.,24.0,0.,24.0,0.,24.0,0.,24.0
1979-07-06 15:02:32.570 ,4,1,0.,24.0,0.,24.0,0.,24.0,0.,24.0
1979-07-06 15:02:56.570 ,4,0,0.,24.0,0.,24.0,0.,24.0,0.,24.0
1979-07-06 15:03:20.570 ,5,1,0.,24.0,0.,24.0,0.,24.0,0.,24.0
1979-07-06 15:03:44.570 ,5,0,0.,24.0,0.,24.0,0.,24.0,0.,24.0
1979-07-06 15:04:08.570 ,6,1,0.,24.0,0.,24.0,0.,24.0,0.,24.0
1979-07-06 15:04:32.570 ,6,0,0.,24.0,0.,24.0,0.,24.0,0.,24.0
1979-07-06 15:04:56.570 ,7,1,0.,24.0,0.,24.0,0.,24.0,0.,24.0
1979-07-06 15:05:20.570 ,7,0,0.,24.0,0.,24.0,0.,24.0,0.,24.0
1979-07-06 15:05:44.570 ,7,1,0.,24.0,0.,24.0,0.,24.0,0.,24.0
1979-07-06 15:06:08.570 ,7,0,0.,24.0,0.,24.0,0.,24.0,0.,24.0
1979-07-06 15:06:32.570 ,6,1,0.,24.0,0.,24.0,0.,24.0,0.,24.0
1979-07-06 15:06:56.570 ,6,0,0.,24.0,0.,24.0,0.,24.0,0.,24.0
1979-07-06 15:07:20.570 ,5,1,0.,24.0,0.,24.0,0.,24.0,0.,24.0
1979-07-06 15:07:44.570 ,5,0,0.,24.0,0.,24.0,0.,24.0,0.,24.0
1979-07-06 15:08:08.570 ,4,1,0.,24.0,0.,24.0,0.,24.0,0.,24.0
1979-07-06 15:08:32.570 ,4,0,0.,24.0,0.,24.0,0.,24.0,0.,24.0
1979-07-06 15:08:56.570 ,3,1,0.,24.0,0.,24.0,0.,24.0,0.,24.0
1979-07-06 15:09:20.570 ,3,0,0.,24.0,0.,24.0,0.,24.0,0.,24.0
1979-07-06 15:09:44.570 ,2,1,0.,24.0,0.,24.0,0.,24.0,0.,24.0
1979-07-06 15:10:08.570 ,2,0,0.,24.0,0.,24.0,0.,24.0,0.,24.0
1979-07-06 15:10:32.570 ,1,1,0.,24.0,0.,24.0,0.,24.0,0.,24.0
1979-07-06 15:10:56.570 ,1,0,0.,24.0,0.,24.0,0.,24.0,0.,24.0
1979-07-06 15:11:20.570 ,0,1,0.,24.0,0.,24.0,0.,24.0,0.,24.0
1979-07-06 15:11:44.570 ,0,0,0.,24.0,0.,24.0,0.,24.0,0.,24.0
1979-07-06 15:12:08.570 ,0,1,0.,24.0,0.,24.0,0.,24.0,0.,24.0
1979-07-06 15:12:32.570 ,0,0,0.,24.0,0.,24.0,0.,24.0,0.,24.0
1979-07-06 15:12:56.570 ,1,1,0.,24.0,0.,24.0,0.,24.0,0.,24.0
1979-07-06 15:13:20.570 ,1,0,0.,24.0,0.,24.0,0.,24.0,0.,24.0
1979-07-06 15:13:44.570 ,2,1,0.,24.0,0.,24.0,0.,24.0,0.,24.0
1979-07-06 15:14:08.570 ,2,0,0.,24.0,0.,24.0,0.,24.0,0.,24.0
1979-07-06 15:14:32.570 ,3,1,0.,24.0,0.,24.0,0.,24.0,0.,24.0
1979-07-06 15:14:56.570 ,3,0,0.,24.0,0.,24.0,0.,24.0,0.,24.0
1979-07-06 15:15:20.570 ,4,1,0.,24.0,0.,24.0,0.,24.0,0.,24.0
1979-07-06 15:15:44.570 ,4,0,0.,24.0,0.,24.0,0.,24.0,0.,24.0
1979-07-06 15:16:08.570 ,5,1,0.,24.0,0.,24.0,0.,24.0,0.,24.0
1979-07-06 15:16:32.570 ,5,0,0.,24.0,0.,24.0,0.,24.0,0.,24.0
1979-07-06 15:16:56.570 ,6,1,0.,24.0,0.,24.0,0.,24.0,0.,24.0
1979-07-06 15:17:20.570 ,6,0,0.,24.0,0.,24.0,0.,24.0,0.,24.0
1979-07-06 15:17:44.570 ,7,1,0.,24.0,0.,24.0,0.,24.0,0.,24.0
1979-07-06 15:18:08.570 ,7,0,0.,24.0,0.,24.0,0.,24.0,0.,24.0
1979-07-06 15:18:32.570 ,7,1,0.,24.0,0.,24.0,0.,24.0,0.,24.0
1979-07-06 15:18:56.570 ,7,0,0.,24.0,0.,24.0,0.,24.0,0.,24.0
1979-07-06 15:19:20.570 ,6,1,0.,24.0,0.,24.0,0.,24.0,0.,24.0
1979-07-06 15:19:44.570 ,6,0,0.,24.0,0.,24.0,0.,24.0,0.,24.0
1979-07-06 15:20:08.570 ,5,1,0.,24.0,0.,24.0,0.,24.0,0.,24.0
1979-07-06 15:20:32.570 ,5,0,0.,24.0,0.,24.0,0.,24.0,0.,24.0
1979-07-06 15:20:56.570 ,4,1,0.,24.0,0.,24.0,0.,24.0,0.,24.0
1979-07-06 15:21:20.570 ,4,0,0.,24.0,0.,24.0,0.,24.0,0.,24.0
1979-07-06 15:21:44.570 ,3,1,0.,24.0,0.,24.0,0.,24.0,0.,24.0
1979-07-06 15:22:08.570 ,3,0,0.,24.0,0.,24.0,0.,24.0,0.,24.0
1979-07-06 15:22:32.570 ,2,1,0.,24.0,0.,24.0,0.,24.0,0.,24.0
1979-07-06 15:22:56.570 ,2,0,0.,24.0,0.,24.0,0.,24.0,0.,24.0
1979-07-06 15:23:20.570 ,1,1,0.,24.0,0.,24.0,0.,24.0,0.,24.0
1979-07-06 15:23:44.570 ,1,0,0.,24.0,0.,24.0,0.,24.0,0.,24.0
1979-07-06 15:24:08.570 ,0,1,0.,24.0,0.,24.0,0.,24.0,0.,24.0
1979-07-06 15:24:32.570 ,0,0,0.,24.0,0.,24.0,0.,24.0,0.,24.0
1979-07-06 15:24:56.570 ,0,1,0.,24.0,0.,24.0,0.,24.0,0.,24.0
1979-07-06 15:25:20.570 ,0,0,0.,24.0,0.,24.0,0.,24.0,0.,24.0
1979-07-06 15:25:44.570 ,1,1,0.,24.0,0.,24.0,0.,24.0,0.,24.0
1979-07-06 15:26:08.570 ,1,0,0.,24.0,0.,24.0,0.,24.0,0.,24.0
1979-07-06 15:26:32.570 ,2,1,0.,24.0,0.,24.0,0.,24.0,0.,24.0
1979-07-06 15:26:56.570 ,2,0,0.,24.0,0.,24.0,0.,24.0,0.,24.0
1979-07-06 15:27:20.570 ,3,1,0.,24.0,0.,24.0,0.,24.0,0.,24.0
1979-07-06 15:27:44.570 ,3,0,0.,24.0,0.,24.0,0.,24.0,0.,24.0
1979-07-06 15:28:08.570 ,4,1,0.,24.0,0.,24.0,0.,24.0,0.,24.0
1979-07-06 15:28:32.570 ,4,0,0.,24.0,0.,24.0,0.,24.0,0.,24.0
1979-07-06 15:28:56.570 ,5,1,0.,24.0,0.,24.0,0.,24.0,0.,24.0
1979-07-06 15:29:20.570 ,5,0,0.,24.0,0.,24.0,0.,24.0,0.,24.0
1979-07-06 15:29:44.570 ,6,1,0.,24.0,0.,24.0,0.,24.0,0.,24.0
1979-07-06 15:30:08.570 ,6,0,0.,24.0,0.,24.0,0.,24.0,0.,24.0
1979-07-06 15:30:32.570 ,7,0,0.,24.0,0.,24.0,0.,24.0,0.,24.0
1979-07-06 15:30:56.570 ,7,0,0.,24.0,0.,24.0,0.,24.0,0.,24.0
1979-07-06 15:31:20.570 ,5,1,0.,24.0,0.,24.0,0.,24.0,0.,24.0
1979-07-06 15:31:44.570 ,1,1,0.,24.0,0.,24.0,0.,24.0,0.,24.0
1979-07-06 15:32:08.570 ,2,1,0.,24.0,0.,24.0,0.,24.0,0.,24.0
1979-07-06 15:32:32.570 ,6,1,0.,24.0,0.,24.0,0.,24.0,0.,24.0
1979-07-06 15:32:56.570 ,5,1,0.,24.0,0.,24.0,0.,24.0,0.,24.0
1979-07-06 15:33:20.570 ,1,1,0.,24.0,0.,24.0,0.,24.0,0.,24.0
1979-07-06 15:33:44.570 ,2,1,0.,24.0,0.,24.0,0.,24.0,0.,24.0
1979-07-06 15:34:08.570 ,6,1,0.,24.0,0.,24.0,0.,24.0,0.,24.0
1979-07-06 15:34:32.570 ,5,1,0.,24.0,0.,24.0,0.,24.0,0.,24.0
1979-07-06 15:34:56.570 ,1,1,0.,24.0,0.,24.0,0.,24.0,0.,24.0
1979-07-06 15:35:20.570 ,2,1,0.,24.0,0.,24.0,0.,24.0,0.,24.0
1979-07-06 15:35:44.570 ,6,1,0.,24.0,0.,24.0,0.,24.0,0.,24.0
1979-07-06 15:36:08.570 ,5,1,0.,24.0,0.,24.0,0.,24.0,0.,24.0
1979-07-06 15:36:32.570 ,1,1,0.,24.0,0.,24.0,0.,24.0,0.,24.0
1979-07-06 15:36:56.570 ,2,1,0.,24.0,0.,24.0,0.,24.0,0.,24.0
1979-07-06 15:37:20.570 ,6,1,0.,24.0,0.,24.0,0.,24.0,0.,24.0
1979-07-06 15:37:44.570 ,5,1,0.,24.0,0.,24.0,0.,24.0,0.,24.0
1979-07-06 15:38:08.570 ,1,1,0.,24.0,0.,24.0,0.,24.0,0.,24.0
1979-07-06 15:38:32.570 ,2,1,0.,24.0,0.,24.0,0.,24.0,0.,24.0
1979-07-06 15:38:56.570 ,6,1,0.,24.0,0.,24.0,0.,24.0,0.,24.0
1979-07-06 15:39:20.570 ,5,1,0.,24.0,0.,24.0,0.,24.0,0.,24.0
1979-07-06 15:39:44.570 ,1,1,0.,24.0,0.,24.0,0.,24.0,0.,24.0
1979-07-06 15:40:08.570 ,2,1,0.,24.0,0.,24.0,0.,24.0,0.,24.0
1979-07-06 15:40:32.570 ,6,1,0.,24.0,0.,24.0,0.,24.0,0.,24.0
1979-07-06 15:40:56.570 ,5,1,0.,24.0,0.,24.0,0.,24.0,0.,24.0
1979-07-06 15:41:20.570 ,1,1,0.,24.0,0.,24.0,0.,24.0,0.,24.0
1979-07-06 15:41:44.570 ,0,0,0.,24.0,0.,24.0,0.,24.0,0.,24.0
1979-07-06 15:42:08.570 ,0,0,0.,24.0,0.,24.0,0.,24.0,0.,24.0
1979-07-06 15:42:32.570 ,5,1,0.,24.0,0.,24.0,0.,24.0,0.,24.0
1979-07-06 15:42:56.570 ,5,0,0.,24.0,0.,24.0,0.,24.0,0.,24.0
1979-07-06 15:43:20.570 ,4,1,0.,24.0,0.,24.0,0.,24.0,0.,24.0
1979-07-06 15:43:44.570 ,4,0,0.,24.0,0.,24.0,0.,24.0,0.,24.0
1979-07-06 15:44:08.570 ,3,1,0.,24.0,0.,24.0,0.,24.0,0.,24.0
1979-07-06 15:44:32.570 ,3,0,0.,24.0,0.,24.0,0.,24.0,0.,24.0
1979-07-06 15:44:56.570 ,2,1,0.,24.0,0.,24.0,0.,24.0,0.,24.0
1979-07-06 15:45:20.570 ,2,0,0.,24.0,0.,24.0,0.,24.0,0.,24.0
1979-07-06 15:45:44.570 ,1,1,0.,24.0,0.,24.0,0.,24.0,0.,24.0
1979-07-06 15:46:08.570 ,1,0,0.,24.0,0.,24.0,0.,24.0,0.,24.0
1979-07-06 15:46:32.570 ,0,1,0.,24.0,0.,24.0,0.,24.0,0.,24.0
1979-07-06 15:46:56.570 ,0,0,0.,24.0,0.,24.0,0.,24.0,0.,24.0
1979-07-06 15:47:20.570 ,0,1,0.,24.0,0.,24.0,0.,24.0,0.,24.0
1979-07-06 15:47:44.570 ,0,0,0.,24.0,0.,24.0,0.,24.0,0.,24.0
1979-07-06 15:48:08.570 ,1,1,0.,24.0,0.,24.0,0.,24.0,0.,24.0
1979-07-06 15:48:32.570 ,1,0,0.,24.0,0.,24.0,0.,24.0,0.,24.0
1979-07-06 15:48:56.570 ,2,1,0.,24.0,0.,24.0,0.,24.0,0.,24.0
1979-07-06 15:49:20.570 ,2,0,0.,24.0,0.,24.0,0.,24.0,0.,24.0
1979-07-06 15:49:44.570 ,3,1,0.,24.0,0.,24.0,0.,24.0,0.,24.0
1979-07-06 15:50:08.570 ,3,0,0.,24.0,0.,24.0,0.,24.0,0.,24.0
1979-07-06 15:50:32.570 ,4,1,0.,24.0,0.,24.0,0.,24.0,0.,24.0
1979-07-06 15:50:56.570 ,4,0,0.,24.0,0.,24.0,0.,24.0,0.,24.0
1979-07-06 15:51:20.570 ,5,1,0.,24.0,0.,24.0,0.,24.0,0.,24.0
1979-07-06 15:51:44.570 ,5,0,0.,24.0,0.,24.0,0.,24.0,0.,24.0
1979-07-06 15:52:08.570 ,6,1,0.,24.0,0.,24.0,0.,24.0,0.,24.0
1979-07-06 15:52:32.570 ,6,0,0.,24.0,0.,24.0,0.,24.0,0.,24.0
1979-07-06 15:52:56.570 ,7,1,0.,24.0,0.,24.0,0.,24.0,0.,24.0
1979-07-06 15:53:20.570 ,7,0,0.,24.0,0.,24.0,0.,24.0,0.,24.0
1979-07-06 15:53:44.570 ,7,1,0.,24.0,0.,24.0,0.,24.0,0.,24.0
1979-07-06 15:54:08.570 ,7,0,0.,24.0,0.,24.0,0.,24.0,0.,24.0
1979-07-06 15:54:32.570 ,6,1,0.,24.0,0.,24.0,0.,24.0,0.,24.0
1979-07-06 15:54:56.570 ,6,0,0.,24.0,0.,24.0,0.,24.0,0.,24.0
1979-07-06 15:55:20.570 ,5,1,0.,24.0,0.,24.0,0.,24.0,0.,24.0
1979-07-06 15:55:44.570 ,5,0,0.,24.0,0.,24.0,0.,24.0,0.,24.0
1979-07-06 15:56:08.570 ,4,1,0.,24.0,0.,24.0,0.,24.0,0.,24.0
1979-07-06 15:56:32.570 ,4,0,0.,24.0,0.,24.0,0.,24.0,0.,24.0
1979-07-06 15:56:56.570 ,3,1,0.,24.0,0.,24.0,0.,24.0,0.,24.0
1979-07-06 15:57:20.570 ,3,0,0.,24.0,0.,24.0,0.,24.0,0.,24.0
1979-07-06 15:57:44.570 ,2,1,0.,24.0,0.,24.0,0.,24.0,0.,24.0
1979-07-06 15:58:08.570 ,2,0,0.,24.0,0.,24.0,0.,24.0,0.,24.0
1979-07-06 15:58:32.570 ,1,1,0.,24.0,0.,24.0,0.,24.0,0.,24.0
1979-07-06 15:58:56.570 ,1,0,0.,24.0,0.,24.0,0.,24.0,0.,24.0
1979-07-06 15:59:20.570 ,0,1,0.,24.0,0.,24.0,0.,24.0,0.,24.0
1979-07-06 15:59:44.570 ,0,0,0.,24.0,0.,24.0,0.,24.0,0.,24.0
1979-07-06 16:00:08.570 ,0,1,0.,24.0,0.,24.0,0.,24.0,0.,24.0
1979-07-06 16:00:32.570 ,0,0,0.,24.0,0.,24.0,0.,24.0,0.,24.0
1979-07-06 16:00:56.570 ,1,1,0.,24.0,0.,24.0,0.,24.0,0.,24.0
1979-07-06 16:01:20.570 ,1,0,0.,24.0,0.,24.0,0.,24.0,0.,24.0
1979-07-06 16:01:44.570 ,2,1,0.,24.0,0.,24.0,0.,24.0,0.,24.0
1979-07-06 16:02:08.570 ,2,0,0.,24.0,0.,24.0,0.,24.0,0.,24.0
1979-07-06 16:02:32.570 ,3,1,0.,24.0,0.,24.0,0.,24.0,0.,24.0
1979-07-06 16:02:56.570 ,3,0,0.,24.0,0.,24.0,0.,24.0,0.,24.0
1979-07-06 16:03:20.570 ,4,1,0.,24.0,0.,24.0,0.,24.0,0.,24.0
1979-07-06 16:03:44.570 ,4,0,0.,24.0,0.,24.0,0.,24.0,0.,24.0
1979-07-06 16:04:08.570 ,5,1,0.,24.0,0.,24.0,0.,24.0,0.,24.0
1979-07-06 16:04:32.570 ,5,0,0.,24.0,0.,24.0,0.,24.0,0.,24.0
1979-07-06 16:04:56.570 ,6,1,0.,24.0,0.,24.0,0.,24.0,0.,24.0
1979-07-06 16:05:20.570 ,6,0,0.,24.0,0.,24.0,0.,24.0,0.,24.0
1979-07-06 16:05:44.570 ,7,1,0.,24.0,0.,24.0,0.,24.0,0.,24.0
1979-07-06 16:06:08.570 ,7,0,0.,24.0,0.,24.0,0.,24.0,0.,24.0
1979-07-06 16:06:32.570 ,7,1,0.,24.0,0.,24.0,0.,24.0,0.,24.0
1979-07-06 16:06:56.570 ,7,0,0.,24.0,0.,24.0,0.,24.0,0.,24.0
1979-07-06 16:07:20.570 ,6,1,0.,24.0,0.,24.0,0.,24.0,0.,24.0
1979-07-06 16:07:44.570 ,6,0,0.,24.0,0.,24.0,0.,24.0,0.,24.0
1979-07-06 16:08:08.570 ,5,1,0.,24.0,0.,24.0,0.,24.0,0.,24.0
1979-07-06 16:08:32.570 ,5,0,0.,24.0,0.,24.0,0.,24.0,0.,24.0
1979-07-06 16:08:56.570 ,0,0,,0,,0,,0,,0
1979-07-06 16:09:20.570 ,0,0,,0,,0,,0,,0
1979-07-06 16:09:20.570 ,4,0,0.,24.0,0.,24.0,0.,24.0,0.,24.0
1979-07-06 16:09:44.570 ,3,1,0.,24.0,0.,24.0,0.,24.0,0.,24.0
1979-07-06 16:10:08.570 ,3,0,0.,24.0,0.,24.0,0.,24.0,0.,24.0
1979-07-06 16:10:32.570 ,2,1,0.,24.0,0.,24.0,0.,24.0,0.,24.0
1979-07-06 16:10:56.570 ,2,0,0.,24.0,0.,24.0,0.,24.0,0.,24.0
1979-07-06 16:11:20.570 ,1,1,0.,24.0,0.,24.0,0.,24.0,0.,24.0
1979-07-06 16:11:44.570 ,1,0,0.,24.0,0.,24.0,0.,24.0,0.,24.0
1979-07-06 16:12:08.570 ,0,1,0.,24.0,0.,24.0,0.,24.0,0.,24.0
1979-07-06 16:12:32.570 ,0,0,0.,24.0,0.,24.0,0.,24.0,0.,24.0
1979-07-06 16:12:56.570 ,0,1,0.,24.0,0.,24.0,0.,24.0,0.,24.0
1979-07-06 16:13:20.570 ,0,0,0.,24.0,0.,24.0,0.,24.0,0.,24.0
1979-07-06 16:13:44.570 ,1,1,0.,24.0,0.,24.0,0.,24.0,0.,24.0
1979-07-06 16:14:08.570 ,1,0,0.,24.0,0.,24.0,0.,24.0,0.,24.0
1979-07-06 16:14:32.570 ,2,1,0.,24.0,0.,24.0,0.,24.0,0.,24.0
1979-07-06 16:14:56.570 ,2,0,0.,24.0,0.,24.0,0.,24.0,0.,24.0
1979-07-06 16:15:20.570 ,3,1,0.,24.0,0.,24.0,0.,24.0,0.,24.0
1979-07-06 16:15:44.570 ,3,0,0.,24.0,0.,24.0,0.,24.0,0.,24.0
1979-07-06 16:16:08.570 ,4,1,0.,24.0,0.,24.0,0.,24.0,0.,24.0
1979-07-06 16:16:32.570 ,4,0,0.,24.0,0.,24.0,0.,24.0,0.,24.0
1979-07-06 16:16:56.570 ,5,1,0.,24.0,0.,24.0,0.,24.0,0.,24.0
1979-07-06 16:17:20.570 ,5,0,0.,24.0,0.,24.0,0.,24.0,0.,24.0
1979-07-06 16:17:44.570 ,6,1,0.,24.0,0.,24.0,0.,24.0,0.,24.0
1979-07-06 16:18:08.570 ,6,0,0.,24.0,0.,24.0,0.,24.0,0.,24.0
1979-07-06 16:18:32.570 ,7,1,0.,24.0,0.,24.0,0.,24.0,0.,24.0
1979-07-06 16:18:56.570 ,7,0,0.,24.0,0.,24.0,0.,24.0,0.,24.0
1979-07-06 16:19:20.570 ,0,0,0.,24.0,0.,24.0,0.,24.0,0.,24.0
1979-07-06 16:19:44.570 ,0,0,0.,24.0,0.,24.0,0.,24.0,0.,24.0
1979-07-06 16:20:08.570 ,0,0,0.,24.0,0.,24.0,0.,24.0,0.,24.0
1979-07-06 16:20:32.570 ,0,0,0.,24.0,0.,24.0,0.,24.0,0.,24.0
1979-07-06 16:20:56.570 ,0,0,0.,24.0,0.,24.0,0.,24.0,0.,24.0
1979-07-06 16:21:20.570 ,0,0,0.,24.0,0.,24.0,0.,24.0,0.,24.0
1979-07-06 16:21:44.570 ,0,0,0.,24.0,0.,24.0,0.,24.0,0.,24.0
1979-07-06 16:22:08.570 ,0,0,0.,24.0,0.,24.0,0.,24.0,0.,24.0
1979-07-06 16:22:32.570 ,0,0,0.,24.0,0.,24.0,0.,24.0,0.,24.0
1979-07-06 16:22:56.570 ,0,0,0.,24.0,0.,24.0,0.,24.0,0.,24.0
1979-07-06 16:24:12.160 ,0,0,0.,24.0,0.,24.0,0.,24.0,0.,24.0
1979-07-06 16:24:32.560 ,0,0,0.,24.0,0.,24.0,0.,24.0,0.,24.0
1979-07-06 16:24:56.560 ,0,0,0.,24.0,0.,24.0,0.,24.0,0.,24.0
1979-07-06 16:25:20.560 ,0,0,0.,24.0,0.,24.0,0.,24.0,0.,24.0
1979-07-06 16:25:44.560 ,0,0,0.,24.0,0.,24.0,0.,24.0,0.,24.0
1979-07-06 16:26:08.560 ,0,0,0.,24.0,0.,24.0,0.,24.0,0.,24.0
1979-07-06 16:26:32.560 ,0,0,0.,24.0,0.,24.0,0.,24.0,0.,24.0
1979-07-06 16:26:56.560 ,0,0,0.,24.0,0.,24.0,0.,24.0,0.,24.0
1979-07-06 16:27:20.560 ,0,0,0.,24.0,0.,24.0,0.,24.0,0.,24.0
1979-07-06 16:27:44.560 ,0,0,0.,24.0,0.,24.0,0.,24.0,0.,24.0
1979-07-06 16:28:08.560 ,0,0,0.,24.0,0.,24.0,0.,24.0,0.,24.0
1979-07-06 16:28:32.560 ,0,0,0.,24.0,0.,24.0,0.,24.0,0.,24.0
1979-07-06 16:28:56.560 ,0,0,0.,24.0,0.,24.0,0.,24.0,0.,24.0
1979-07-06 16:29:20.560 ,0,0,0.,24.0,0.,24.0,0.,24.0,0.,24.0
1979-07-06 16:29:44.560 ,0,0,0.,24.0,0.,24.0,0.,24.0,0.,24.0
1979-07-06 16:30:08.560 ,0,0,0.,24.0,0.,24.0,0.,24.0,0.,24.0
1979-07-06 16:30:32.560 ,0,0,0.,24.0,0.,24.0,0.,24.0,0.,24.0
1979-07-06 16:30:56.560 ,0,0,0.,24.0,0.,24.0,0.,24.0,0.,24.0
1979-07-06 16:31:20.560 ,0,0,0.,24.0,0.,24.0,0.,24.0,0.,24.0
1979-07-06 16:31:44.560 ,0,0,0.,24.0,0.,24.0,0.,24.0,0.,24.0
1979-07-06 16:32:08.560 ,0,0,0.,24.0,0.,24.0,0.,24.0,0.,24.0
1979-07-06 16:32:32.560 ,0,0,0.,24.0,0.,24.0,0.,24.0,0.,24.0
1979-07-06 16:32:56.560 ,0,0,0.,24.0,0.,24.0,0.,24.0,0.,24.0
1979-07-06 16:33:20.560 ,0,0,0.,24.0,0.,24.0,0.,24.0,0.,24.0
1979-07-06 16:33:44.560 ,0,0,0.,24.0,0.,24.0,0.,24.0,0.,24.0
1979-07-06 16:34:08.560 ,0,0,0.,24.0,0.,24.0,0.,24.0,0.,24.0
1979-07-06 16:34:32.560 ,0,0,0.,24.0,0.,24.0,0.,24.0,0.,24.0
1979-07-06 16:34:56.560 ,0,0,0.,24.0,0.,24.0,0.,24.0,0.,24.0
1979-07-06 16:35:20.560 ,0,0,0.,24.0,0.,24.0,0.,24.0,0.,24.0
1979-07-06 16:35:44.560 ,0,0,0.,24.0,0.,24.0,0.,24.0,0.,24.0
1979-07-06 16:36:08.560 ,0,0,0.,24.0,0.,24.0,0.,24.0,0.,24.0
1979-07-06 16:36:32.560 ,0,0,0.,24.0,0.,24.0,0.,24.0,0.,24.0
1979-07-06 16:36:56.560 ,0,0,0.,24.0,0.,24.0,0.,24.0,0.,24.0
1979-07-06 16:37:20.560 ,0,0,0.,24.0,0.,24.0,0.,24.0,0.,24.0
1979-07-06 16:37:44.560 ,0,0,0.,24.0,0.,24.0,0.,24.0,0.,24.0
1979-07-06 16:38:08.560 ,0,0,0.,24.0,0.,24.0,0.,24.0,0.,24.0
1979-07-06 16:38:32.560 ,0,0,0.,24.0,0.,24.0,0.,24.0,0.,24.0
1979-07-06 16:38:56.560 ,0,0,0.,24.0,0.,24.0,0.,24.0,0.,24.0
1979-07-06 16:39:20.560 ,0,0,0.,24.0,0.,24.0,0.,24.0,0.,24.0
1979-07-06 16:39:44.560 ,0,0,0.,24.0,0.,24.0,0.,24.0,0.,24.0
1979-07-06 16:40:08.560 ,0,0,0.,24.0,0.,24.0,0.,24.0,0.,24.0
1979-07-06 16:40:32.560 ,0,0,0.,24.0,0.,24.0,0.,24.0,0.,24.0
1979-07-06 16:40:56.560 ,0,0,0.,24.0,0.,24.0,0.,24.0,0.,24.0
1979-07-06 16:41:20.560 ,0,0,0.,24.0,0.,24.0,0.,24.0,0.,24.0
1979-07-06 16:41:44.560 ,0,0,0.,24.0,0.,24.0,0.,24.0,0.,24.0
1979-07-06 16:42:08.560 ,0,0,0.,24.0,0.,24.0,0.,24.0,0.,24.0
1979-07-06 16:42:32.560 ,0,0,0.,24.0,0.,24.0,0.,24.0,0.,24.0
1979-07-06 16:42:56.560 ,0,0,0.,24.0,0.,24.0,0.,24.0,0.,24.0
1979-07-06 16:43:20.560 ,0,0,0.,24.0,0.,24.0,0.,24.0,0.,24.0
1979-07-06 16:43:44.560 ,0,0,0.,24.0,0.,24.0,0.,24.0,0.,24.0
1979-07-06 16:44:08.560 ,0,0,0.,24.0,0.,24.0,0.,24.0,0.,24.0
1979-07-06 16:44:32.560 ,0,0,0.,24.0,0.,24.0,0.,24.0,0.,24.0
1979-07-06 16:44:56.560 ,0,0,0.,24.0,0.,24.0,0.,24.0,0.,24.0
1979-07-06 16:45:20.560 ,0,0,0.,24.0,0.,24.0,0.,24.0,0.,24.0
1979-07-06 16:45:44.560 ,0,0,0.,24.0,0.,24.0,0.,24.0,0.,24.0
1979-07-06 16:46:08.560 ,0,0,0.,24.0,0.,24.0,0.,24.0,0.,24.0
1979-07-06 16:46:32.560 ,0,0,0.,24.0,0.,24.0,0.,24.0,0.,24.0
1979-07-06 16:46:56.560 ,0,0,0.,24.0,0.,24.0,0.,24.0,0.,24.0
1979-07-06 16:47:20.560 ,0,0,0.,24.0,0.,24.0,0.,24.0,0.,24.0
1979-07-06 16:47:44.560 ,0,0,0.,24.0,0.,24.0,0.,24.0,0.,24.0
1979-07-06 16:48:08.560 ,0,0,0.,24.0,0.,24.0,0.,24.0,0.,24.0
1979-07-06 16:48:32.560 ,0,0,0.,24.0,0.,24.0,0.,24.0,0.,24.0
1979-07-06 16:48:56.560 ,0,0,0.,24.0,0.,24.0,0.,24.0,0.,24.0
1979-07-06 16:49:20.560 ,0,0,0.,24.0,0.,24.0,0.,24.0,0.,24.0
1979-07-06 16:49:44.560 ,0,0,0.,24.0,0.,24.0,0.,24.0,0.,24.0
1979-07-06 16:50:08.560 ,0,0,0.,24.0,0.,24.0,0.,24.0,0.,24.0
1979-07-06 16:50:32.560 ,0,0,0.,24.0,0.,24.0,0.,24.0,0.,24.0
1979-07-06 16:50:56.560 ,0,0,0.,24.0,0.,24.0,0.,24.0,0.,24.0
1979-07-06 16:51:20.560 ,0,0,0.,24.0,0.,24.0,0.,24.0,0.,24.0
1979-07-06 16:51:44.560 ,0,0,0.,24.0,0.,24.0,0.,24.0,0.,24.0
1979-07-06 16:52:08.560 ,0,0,0.,24.0,0.,24.0,0.,24.0,0.,24.0
1979-07-06 16:52:32.560 ,0,0,0.,24.0,0.,24.0,0.,24.0,0.,24.0
1979-07-06 16:52:56.560 ,0,0,0.,24.0,0.,24.0,0.,24.0,0.,24.0
1979-07-06 16:53:20.560 ,0,0,0.,24.0,0.,24.0,0.,24.0,0.,24.0
1979-07-06 16:53:44.560 ,0,0,0.,24.0,0.,24.0,0.,24.0,0.,24.0
1979-07-06 16:54:08.560 ,0,0,0.,24.0,0.,24.0,0.,24.0,0.,24.0
1979-07-06 16:54:32.560 ,0,0,0.,24.0,0.,24.0,0.,24.0,0.,24.0
1979-07-06 16:54:56.560 ,0,0,0.,24.0,0.,24.0,0.,24.0,0.,24.0
1979-07-06 16:55:20.560 ,0,0,0.,24.0,0.,24.0,0.,24.0,0.,24.0
1979-07-06 16:55:44.560 ,0,0,0.,24.0,0.,24.0,0.,24.0,0.,24.0
1979-07-06 16:56:08.560 ,0,0,0.,24.0,0.,24.0,0.,24.0,0.,24.0
1979-07-06 16:56:32.560 ,0,0,0.,24.0,0.,24.0,0.,24.0,0.,24.0
1979-07-06 16:56:56.560 ,0,0,0.,24.0,0.,24.0,0.,24.0,0.,24.0
1979-07-06 16:57:20.560 ,0,0,0.,24.0,0.,24.0,0.,24.0,0.,24.0
1979-07-06 16:57:44.560 ,0,0,0.,24.0,0.,24.0,0.,24.0,0.,24.0
1979-07-06 16:58:08.560 ,0,0,0.,24.0,0.,24.0,0.,24.0,0.,24.0
1979-07-06 16:58:32.560 ,0,0,0.,24.0,0.,24.0,0.,24.0,0.,24.0
1979-07-06 16:58:56.560 ,0,0,0.,24.0,0.,24.0,0.,24.0,0.,24.0
1979-07-06 16:59:20.560 ,0,0,0.,24.0,0.,24.0,0.,24.0,0.,24.0
1979-07-06 16:59:44.560 ,0,0,0.,24.0,0.,24.0,0.,24.0,0.,24.0
1979-07-06 17:00:08.560 ,0,0,0.,24.0,0.,24.0,0.,24.0,0.,24.0
1979-07-06 17:00:32.560 ,0,0,0.,24.0,0.,24.0,0.,24.0,0.,24.0
1979-07-06 17:00:56.560 ,0,0,0.,24.0,0.,24.0,0.,24.0,0.,24.0
1979-07-06 17:01:20.560 ,0,0,0.,24.0,0.,24.0,0.,24.0,0.,24.0
1979-07-06 17:01:44.560 ,0,0,0.,24.0,0.,24.0,0.,24.0,0.,24.0
1979-07-06 17:02:08.560 ,0,0,0.,24.0,0.,24.0,0.,24.0,0.,24.0
1979-07-06 17:02:32.560 ,0,0,0.,24.0,0.,24.0,0.,24.0,0.,24.0
1979-07-06 17:02:56.560 ,0,0,0.,24.0,0.,24.0,0.,24.0,0.,24.0
1979-07-06 17:03:20.560 ,0,0,0.,24.0,0.,24.0,0.,24.0,0.,24.0
1979-07-06 17:03:44.560 ,0,0,0.,24.0,0.,24.0,0.,24.0,0.,24.0
1979-07-06 17:04:08.560 ,0,0,0.,24.0,0.,24.0,0.,24.0,0.,24.0
1979-07-06 17:04:32.560 ,0,0,0.,24.0,0.,24.0,0.,24.0,0.,24.0
1979-07-06 17:04:56.560 ,0,0,0.,24.0,0.,24.0,0.,24.0,0.,24.0
1979-07-06 17:05:20.560 ,0,0,0.,24.0,0.,24.0,0.,24.0,0.,24.0
1979-07-06 17:05:44.560 ,0,0,0.,24.0,0.,24.0,0.,24.0,0.,24.0
1979-07-06 17:06:08.560 ,0,0,0.,24.0,0.,24.0,0.,24.0,0.,24.0
1979-07-06 17:06:32.560 ,0,0,0.,24.0,0.,24.0,0.,24.0,0.,24.0
1979-07-06 17:06:56.560 ,0,0,0.,24.0,0.,24.0,0.,24.0,0.,24.0
1979-07-06 17:07:20.560 ,0,0,0.,24.0,0.,24.0,0.,24.0,0.,24.0
1979-07-06 17:07:44.560 ,0,0,0.,24.0,0.,24.0,0.,24.0,0.,24.0
1979-07-06 17:08:08.560 ,0,0,0.,24.0,0.,24.0,0.,24.0,0.,24.0
1979-07-06 17:08:32.560 ,0,0,0.,24.0,0.,24.0,0.,24.0,0.,24.0
1979-07-06 17:08:56.560 ,0,0,0.,24.0,0.,24.0,0.,24.0,0.,24.0
1979-07-06 17:09:20.560 ,0,0,0.,24.0,0.,24.0,0.,24.0,0.,24.0
1979-07-06 17:09:44.560 ,0,0,0.,24.0,0.,24.0,0.,24.0,0.,24.0
1979-07-06 17:10:08.560 ,0,0,0.,24.0,0.,24.0,0.,24.0,0.,24.0
1979-07-06 17:10:32.560 ,0,0,0.,24.0,0.,24.0,0.,24.0,0.,24.0
1979-07-06 17:10:56.560 ,0,0,0.,24.0,0.,24.0,0.,24.0,0.,24.0
1979-07-06 17:11:20.560 ,0,0,0.,24.0,0.,24.0,0.,24.0,0.,24.0
1979-07-06 17:11:44.560 ,0,0,0.,24.0,0.,24.0,0.,24.0,0.,24.0
1979-07-06 17:12:08.560 ,0,0,0.,24.0,0.,24.0,0.,24.0,0.,24.0
1979-07-06 17:12:32.560 ,0,0,0.,24.0,0.,24.0,0.,24.0,0.,24.0
1979-07-06 17:12:56.560 ,0,0,0.,24.0,0.,24.0,0.,24.0,0.,24.0
1979-07-06 17:13:20.560 ,0,0,0.,24.0,0.,24.0,0.,24.0,0.,24.0
1979-07-06 17:13:44.560 ,0,0,0.,24.0,0.,24.0,0.,24.0,0.,24.0
1979-07-06 17:14:08.560 ,0,0,0.,24.0,0.,24.0,0.,24.0,0.,24.0
1979-07-06 17:14:32.560 ,0,0,0.,24.0,0.,24.0,0.,24.0,0.,24.0
1979-07-06 17:14:56.560 ,0,0,0.,24.0,0.,24.0,0.,24.0,0.,24.0
1979-07-06 17:15:20.560 ,0,0,0.,24.0,0.,24.0,0.,24.0,0.,24.0
1979-07-06 17:15:44.560 ,0,0,0.,24.0,0.,24.0,0.,24.0,0.,24.0
1979-07-06 17:16:08.560 ,0,0,0.,24.0,0.,24.0,0.,24.0,0.,24.0
1979-07-06 17:16:32.560 ,0,0,0.,24.0,0.,24.0,0.,24.0,0.,24.0
1979-07-06 17:16:56.560 ,0,0,0.,24.0,0.,24.0,0.,24.0,0.,24.0
1979-07-06 17:17:20.560 ,0,0,0.,24.0,0.,24.0,0.,24.0,0.,24.0
1979-07-06 17:17:44.560 ,0,0,0.,24.0,0.,24.0,0.,24.0,0.,24.0
1979-07-06 17:18:08.560 ,0,0,0.,24.0,0.,24.0,0.,24.0,0.,24.0
1979-07-06 17:18:32.560 ,0,0,0.,24.0,0.,24.0,0.,24.0,0.,24.0
1979-07-06 17:18:56.560 ,0,0,0.,24.0,0.,24.0,0.,24.0,0.,24.0
1979-07-06 17:19:20.560 ,0,0,0.,24.0,0.,24.0,0.,24.0,0.,24.0
1979-07-06 17:19:44.560 ,0,0,0.,24.0,0.,24.0,0.,24.0,0.,24.0
1979-07-06 17:20:08.560 ,0,0,0.,24.0,0.,24.0,0.,24.0,0.,24.0
1979-07-06 17:20:32.560 ,0,0,0.,24.0,0.,24.0,0.,24.0,0.,24.0
1979-07-06 17:20:56.560 ,0,0,0.,24.0,0.,24.0,0.,24.0,0.,24.0
1979-07-06 17:21:20.560 ,0,0,0.,24.0,0.,24.0,0.,24.0,0.,24.0
1979-07-06 17:21:44.560 ,0,0,0.,24.0,0.,24.0,0.,24.0,0.,24.0
1979-07-06 17:22:08.560 ,0,0,0.,24.0,0.,24.0,0.,24.0,0.,24.0
1979-07-06 17:22:32.560 ,0,0,0.,24.0,0.,24.0,0.,24.0,0.,24.0
1979-07-06 17:22:56.560 ,0,0,0.,24.0,0.,24.0,0.,24.0,0.,24.0
1979-07-06 17:23:20.560 ,0,0,0.,24.0,0.,24.0,0.,24.0,0.,24.0
1979-07-06 17:23:44.560 ,0,0,0.,24.0,0.,24.0,0.,24.0,0.,24.0
1979-07-06 17:24:08.560 ,0,0,0.,24.0,0.,24.0,0.,24.0,0.,24.0
1979-07-06 17:24:32.560 ,0,0,0.,24.0,0.,24.0,0.,24.0,0.,24.0
1979-07-06 17:24:56.560 ,0,0,0.,24.0,0.,24.0,0.,24.0,0.,24.0
1979-07-06 17:25:20.560 ,0,0,0.,24.0,0.,24.0,0.,24.0,0.,24.0
1979-07-06 17:25:44.560 ,0,0,0.,24.0,0.,24.0,0.,24.0,0.,24.0
1979-07-06 17:26:08.560 ,0,0,0.,24.0,0.,24.0,0.,24.0,0.,24.0
1979-07-06 17:26:32.560 ,0,0,0.,24.0,0.,24.0,0.,24.0,0.,24.0
1979-07-06 17:26:56.560 ,0,0,0.,24.0,0.,24.0,0.,24.0,0.,24.0
1979-07-06 17:27:20.560 ,0,0,0.,24.0,0.,24.0,0.,24.0,0.,24.0
1979-07-06 17:27:44.560 ,0,0,0.,24.0,0.,24.0,0.,24.0,0.,24.0
1979-07-06 17:28:08.560 ,0,0,0.,24.0,0.,24.0,0.,24.0,0.,24.0
1979-07-06 17:28:32.560 ,0,0,0.,24.0,0.,24.0,0.,24.0,0.,24.0
1979-07-06 17:28:56.560 ,0,0,0.,24.0,0.,24.0,0.,24.0,0.,24.0
1979-07-06 17:29:20.560 ,0,0,0.,24.0,0.,24.0,0.,24.0,0.,24.0
1979-07-06 17:29:44.560 ,0,0,0.,24.0,0.,24.0,0.,24.0,0.,24.0
1979-07-06 17:30:08.560 ,0,0,0.,24.0,0.,24.0,0.,24.0,0.,24.0
1979-07-06 17:30:32.560 ,0,0,0.,24.0,0.,24.0,0.,24.0,0.,24.0
1979-07-06 17:30:56.560 ,0,0,0.,24.0,0.,24.0,0.,24.0,0.,24.0
1979-07-06 17:31:20.560 ,0,0,0.,24.0,0.,24.0,0.,24.0,0.,24.0
1979-07-06 17:31:44.560 ,0,0,0.,24.0,0.,24.0,0.,24.0,0.,24.0
1979-07-06 17:32:08.560 ,0,0,0.,24.0,0.,24.0,0.,24.0,0.,24.0
1979-07-06 17:32:32.560 ,0,0,0.,24.0,0.,24.0,0.,24.0,0.,24.0
1979-07-06 17:32:56.560 ,0,0,0.,24.0,0.,24.0,0.,24.0,0.,24.0
1979-07-06 17:33:20.560 ,0,0,0.,24.0,0.,24.0,0.,24.0,0.,24.0
1979-07-06 17:33:44.560 ,0,0,0.,24.0,0.,24.0,0.,24.0,0.,24.0
1979-07-06 17:34:08.560 ,0,0,0.,24.0,0.,24.0,0.,24.0,0.,24.0
1979-07-06 17:34:32.560 ,0,0,0.,24.0,0.,24.0,0.,24.0,0.,24.0
1979-07-06 17:34:56.560 ,0,0,0.,24.0,0.,24.0,0.,24.0,0.,24.0